This demonstration page uses our WeatherBlox Daily Observations layout. Learn more.

Left ArrowRight Arrow

Hourly Observations for February 20, 2016

Temp ( °F °C ) Dew Point ( °F °C ) Humidity (%) Winds ( mph kmh ) Pressure ( in mb ) Visibility ( mi km ) Precip ( " mm )
12:15 am 00:15 Clear 42 5.8 24 -4.6 48 48 SW 6 9 29.94 1014 10 16 N/A
12:35 am 00:35 Clear 42 5.8 23 -4.8 47 47 SW 6 9 29.94 1014 10 16 N/A
12:55 am 00:55 Clear 42 5.4 24 -4.7 49 49 SW 7 11 29.97 1015 10 16 N/A
1:15 am 01:15 Clear 42 5.7 23 -5 46 46 SW 7 11 29.94 1014 10 16 N/A
1:35 am 01:35 Clear 42 5.8 23 -5.1 46 46 SW 6 9 29.94 1014 10 16 N/A
1:55 am 01:55 Clear 42 5.8 22 -5.3 45 45 N N/A 29.94 1014 10 16 N/A
2:15 am 02:15 Clear 33 0.5 25 -4 72 72 N N/A 30.00 1016 10 16 N/A
2:35 am 02:35 Clear 34 1.2 26 -3.5 71 71 N 6 9 30.03 1017 10 16 N/A
2:55 am 02:55 Clear 39 3.7 25 -4.1 57 57 NNW 5 7 30.00 1016 10 16 N/A
3:15 am 03:15 Clear 37 2.5 25 -4.1 62 62 N N/A 29.97 1015 10 16 N/A
3:35 am 03:35 Clear 35 1.4 25 -4 68 68 N N/A 30.00 1016 10 16 N/A
3:55 am 03:55 Clear 35 1.4 25 -4 68 68 N N/A 30.00 1016 10 16 N/A
4:15 am 04:15 Clear 32 -0.1 24 -4.5 73 73 N N/A 30.00 1016 10 16 N/A
4:35 am 04:35 Clear 33 0.6 24 -4.3 70 70 N N/A 30.00 1016 10 16 N/A
4:55 am 04:55 Clear 31 -0.4 24 -4.4 75 75 N N/A 30.00 1016 10 16 N/A
5:15 am 05:15 Clear 32 undefined 25 -3.8 76 76 N N/A 30.00 1016 10 16 N/A
5:35 am 05:35 Clear 32 -0.1 25 -4 75 75 N N/A 30.03 1017 10 16 N/A
5:55 am 05:55 Clear 31 -0.8 24 -4.4 77 77 NNW 6 9 30.06 1018 10 16 N/A
6:15 am 06:15 Clear 33 0.3 25 -4.1 73 73 NW 5 7 30.03 1017 10 16 N/A
6:35 am 06:35 Clear 32 0.2 25 -3.9 74 74 NW 7 11 30.03 1017 10 16 N/A
6:55 am 06:55 Clear 32 undefined 25 -3.7 76 76 NW 7 11 30.06 1018 10 16 N/A
7:15 am 07:15 Clear 33 0.3 25 -4 73 73 NW 7 11 30.06 1018 10 16 N/A
7:35 am 07:35 Sunny 32 0.1 24 -4.3 73 73 NW 7 11 30.06 1018 10 16 N/A
7:55 am 07:55 Sunny 33 0.6 25 -3.8 73 73 NW 8 13 30.06 1018 10 16 N/A
8:15 am 08:15 Sunny 36 2.1 26 -3.4 67 67 NNW 8 13 30.09 1019 10 16 N/A
8:35 am 08:35 Sunny 37 2.5 27 -2.9 68 68 NNW 5 7 30.06 1018 10 16 N/A
8:55 am 08:55 Sunny 39 3.9 28 -2.2 65 65 NW 7 11 30.06 1018 10 16 N/A
9:15 am 09:15 Sunny 42 5.3 29 -1.9 60 60 NW 5 7 30.06 1018 10 16 N/A
9:35 am 09:35 Sunny 44 6.5 28 -2 55 55 NNW 8 13 30.06 1018 10 16 N/A
9:55 am 09:55 Sunny 46 7.9 29 -1.9 50 50 NNW 5 7 30.03 1017 10 16 N/A
10:15 am 10:15 Sunny 50 9.9 28 -2.4 42 42 N 7 11 30.00 1016 10 16 N/A
10:35 am 10:35 Sunny 51 10.3 28 -2.2 42 42 N 7 11 30.00 1016 10 16 N/A
10:55 am 10:55 Sunny 52 11.3 28 -2 40 40 NNW 3 6 30.00 1016 10 16 N/A
11:15 am 11:15 Sunny 55 12.6 29 -1.9 37 37 NNW 5 7 29.97 1015 10 16 N/A
11:35 am 11:35 Sunny 58 14.3 28 -2.5 31 31 NNE 9 15 29.97 1015 10 16 N/A
11:55 am 11:55 Sunny 58 14.3 28 -2.3 32 32 N 9 15 29.97 1015 10 16 N/A
12:15 pm 12:15 Sunny 59 15 28 -2.4 30 30 N 9 15 29.97 1015 10 16 N/A
12:35 pm 12:35 Sunny 59 15.2 28 -2.5 30 30 NNW 8 13 29.97 1015 10 16 N/A
12:55 pm 12:55 Sunny 60 15.8 28 -2.3 29 29 N 5 7 29.91 1013 10 16 N/A
1:15 pm 13:15 Sunny 62 16.8 27 -3 26 26 N 13 20 29.91 1013 10 16 N/A
1:35 pm 13:35 Sunny 61 16 26 -3.4 26 26 N 9 15 29.91 1013 10 16 N/A
1:55 pm 13:55 Sunny 61 16.1 25 -3.7 26 26 N 9 15 29.88 1012 10 16 N/A
2:15 pm 14:15 Sunny 62 16.5 25 -3.8 25 25 NNW 7 11 29.88 1012 10 16 N/A
2:35 pm 14:35 Sunny 62 16.6 26 -3.1 26 26 N 8 13 29.88 1012 10 16 N/A
2:55 pm 14:55 Sunny 63 17 26 -3.5 25 25 NNW 5 7 29.88 1012 10 16 N/A
3:15 pm 15:15 Sunny 63 17 26 -3.6 24 24 NNW 3 6 29.91 1013 10 16 N/A
3:35 pm 15:35 Sunny 62 16.8 25 -3.7 24 24 N N/A 29.91 1013 10 16 N/A
3:55 pm 15:55 Hazy 62 16.7 25 -3.7 25 25 N N/A 29.91 1013 5 8 N/A
4:15 pm 16:15 Sunny 61 16.3 26 -3.5 26 26 N N/A 29.91 1013 10 16 N/A
4:35 pm 16:35 Sunny 61 16.1 26 -3.5 26 26 N N/A 29.91 1013 10 16 N/A
4:55 pm 16:55 Sunny 60 15.5 30 -1.3 32 32 N N/A 29.91 1013 10 16 N/A
5:15 pm 17:15 Sunny 58 14.5 33 0.5 39 39 ENE 9 15 29.94 1014 10 16 N/A
5:35 pm 17:35 Sunny 57 14.1 32 -0.2 38 38 ENE 8 13 29.94 1014 10 16 N/A
5:55 pm 17:55 Sunny 55 13 32 0.1 41 41 ENE 7 11 29.97 1015 10 16 N/A
6:15 pm 18:15 Sunny 53 11.4 32 undefined 46 46 E 8 13 30.00 1016 10 16 N/A
6:35 pm 18:35 Clear 50 9.9 32 0.1 51 51 E 6 9 30.00 1016 10 16 N/A
6:55 pm 18:55 Clear 47 8.6 34 1 59 59 E 9 15 30.03 1017 10 16 N/A
7:15 pm 19:15 Clear 47 8.2 33 0.3 58 58 E 7 11 30.03 1017 10 16 N/A
7:35 pm 19:35 Clear 45 7.1 32 0.2 62 62 E 6 9 30.06 1018 10 16 N/A
7:55 pm 19:55 Clear 41 4.8 32 undefined 71 71 N N/A 30.09 1019 10 16 N/A
8:15 pm 20:15 Clear 41 4.9 32 0.2 72 72 N N/A 30.12 1020 10 16 N/A
8:35 pm 20:35 Clear 38 3.6 32 undefined 78 78 N N/A 30.12 1020 10 16 N/A
8:55 pm 20:55 Clear 38 3.1 32 undefined 80 80 N 3 6 30.15 1021 10 16 N/A
9:15 pm 21:15 Clear 42 5.3 34 0.9 74 74 NNW 18 30 30.18 1022 10 16 N/A
9:35 pm 21:35 Clear 45 7 32 0.1 62 62 N 10 17 30.18 1022 10 16 N/A
9:55 pm 21:55 Clear 44 6.4 33 0.6 67 67 NNW 12 19 30.18 1022 10 16 N/A
10:15 pm 22:15 Clear 44 6.5 34 1 68 68 N 7 11 30.18 1022 10 16 N/A
10:35 pm 22:35 Clear 38 3.5 32 -0.2 77 77 N N/A 30.18 1022 10 16 N/A
10:55 pm 22:55 Clear 39 3.9 31 -0.5 73 73 E 3 6 30.18 1022 10 16 N/A
11:15 pm 23:15 Partly Cloudy 38 3.2 32 -0.1 79 79 ESE 7 11 30.18 1022 10 16 N/A
11:35 pm 23:35 Mostly Cloudy 38 3.1 31 -0.3 79 79 SSE 9 15 30.18 1022 10 16 N/A
11:55 pm 23:55 Partly Cloudy 39 3.9 32 undefined 76 76 S 5 7 30.15 1021 10 16 N/A

Powered by AerisWeather